Time,TemperatureF,DewpointF,PressureIn,WindDirection,WindDirectionDegrees,WindSpeedMPH,WindSpeedGustMPH,Humidity,HourlyPrecipIn,Conditions,Clouds,dailyrainin,SoftwareType,DateUTC
2013-04-16 00:02:00,46.5,31.8,0.00,WNW,289,7.7,15.8,56,0.00,,,0.00,WUHU216CR1000,2013-04-16 07:02:00,
2013-04-16 00:07:00,46.5,31.8,0.00,WNW,289,7.7,15.8,56,0.00,,,0.00,WUHU216CR1000,2013-04-16 07:07:00,
2013-04-16 00:17:00,46.5,31.7,0.00,WNW,291,8.5,16.2,56,0.00,,,0.00,WUHU216CR1000,2013-04-16 07:17:00,
2013-04-16 00:22:00,46.5,31.7,0.00,WNW,291,8.5,16.2,56,0.00,,,0.00,WUHU216CR1000,2013-04-16 07:22:00,
2013-04-16 00:32:00,46.0,31.8,0.00,WNW,292,8.5,17.8,57,0.00,,,0.00,WUHU216CR1000,2013-04-16 07:32:00,
2013-04-16 00:37:00,46.0,31.8,0.00,WNW,292,8.5,17.8,57,0.00,,,0.00,WUHU216CR1000,2013-04-16 07:37:00,
2013-04-16 00:47:00,45.6,31.9,0.00,WNW,293,8.2,16.5,59,0.00,,,0.00,WUHU216CR1000,2013-04-16 07:47:00,
2013-04-16 00:52:00,45.6,31.9,0.00,WNW,293,8.2,16.5,59,0.00,,,0.00,WUHU216CR1000,2013-04-16 07:52:00,
2013-04-16 01:02:00,45.2,32.3,0.00,WNW,283,8.3,15.1,60,0.00,,,0.00,WUHU216CR1000,2013-04-16 08:02:00,
2013-04-16 01:07:00,45.2,32.3,0.00,WNW,283,8.3,15.1,60,0.00,,,0.00,WUHU216CR1000,2013-04-16 08:07:00,
2013-04-16 01:17:00,45.1,32.1,0.00,WNW,291,8.1,13.8,60,0.00,,,0.00,WUHU216CR1000,2013-04-16 08:17:00,
2013-04-16 01:22:00,45.1,32.1,0.00,WNW,291,8.1,13.8,60,0.00,,,0.00,WUHU216CR1000,2013-04-16 08:22:00,
2013-04-16 01:32:00,45.1,32.1,0.00,WNW,291,8.1,13.8,60,0.00,,,0.00,WUHU216CR1000,2013-04-16 08:32:00,
2013-04-16 01:37:00,45.1,32.1,0.00,WNW,291,8.1,13.8,60,0.00,,,0.00,WUHU216CR1000,2013-04-16 08:37:00,
2013-04-16 01:47:00,45.1,32.1,0.00,WNW,291,8.1,13.8,60,0.00,,,0.00,WUHU216CR1000,2013-04-16 08:47:00,
2013-04-16 01:52:00,45.1,32.1,0.00,WNW,291,8.1,13.8,60,0.00,,,0.00,WUHU216CR1000,2013-04-16 08:52:00,
2013-04-16 02:02:00,45.1,32.1,0.00,WNW,291,8.1,13.8,60,0.00,,,0.00,WUHU216CR1000,2013-04-16 09:02:00,
2013-04-16 02:07:00,45.1,32.1,0.00,WNW,291,8.1,13.8,60,0.00,,,0.00,WUHU216CR1000,2013-04-16 09:07:00,
2013-04-16 02:17:00,45.1,32.1,0.00,WNW,291,8.1,13.8,60,0.00,,,0.00,WUHU216CR1000,2013-04-16 09:17:00,
2013-04-16 02:22:00,45.1,32.1,0.00,WNW,291,8.1,13.8,60,0.00,,,0.00,WUHU216CR1000,2013-04-16 09:22:00,
2013-04-16 02:32:00,44.6,32.2,0.00,WNW,285,9.9,18.0,61,0.00,,,0.00,WUHU216CR1000,2013-04-16 09:32:00,
2013-04-16 02:37:00,44.6,32.2,0.00,WNW,285,9.9,18.0,61,0.00,,,0.00,WUHU216CR1000,2013-04-16 09:37:00,
2013-04-16 02:47:00,44.5,32.2,0.00,WNW,286,9.4,17.3,62,0.00,,,0.00,WUHU216CR1000,2013-04-16 09:47:00,
2013-04-16 02:52:00,44.5,32.2,0.00,WNW,286,9.4,17.3,62,0.00,,,0.00,WUHU216CR1000,2013-04-16 09:52:00,
2013-04-16 03:02:00,44.5,32.2,0.00,WNW,283,10.4,20.0,62,0.00,,,0.00,WUHU216CR1000,2013-04-16 10:02:00,
2013-04-16 03:07:00,44.5,32.2,0.00,WNW,283,10.4,20.0,62,0.00,,,0.00,WUHU216CR1000,2013-04-16 10:07:00,
2013-04-16 03:17:00,44.3,32.3,0.00,West,281,10.2,21.5,62,0.00,,,0.00,WUHU216CR1000,2013-04-16 10:17:00,
2013-04-16 03:22:00,44.3,32.3,0.00,West,281,10.2,21.5,62,0.00,,,0.00,WUHU216CR1000,2013-04-16 10:22:00,
2013-04-16 03:32:00,44.3,32.2,0.00,WNW,282,9.4,20.4,62,0.00,,,0.00,WUHU216CR1000,2013-04-16 10:32:00,
2013-04-16 03:37:00,44.3,32.2,0.00,WNW,282,9.4,20.4,62,0.00,,,0.00,WUHU216CR1000,2013-04-16 10:37:00,
2013-04-16 03:47:00,44.0,32.1,0.00,WNW,284,8.5,16.9,63,0.00,,,0.00,WUHU216CR1000,2013-04-16 10:47:00,
2013-04-16 03:52:00,44.0,32.1,0.00,WNW,284,8.5,16.9,63,0.00,,,0.00,WUHU216CR1000,2013-04-16 10:52:00,
2013-04-16 04:02:00,43.7,32.3,0.00,WNW,286,7.9,16.9,64,0.00,,,0.00,WUHU216CR1000,2013-04-16 11:02:00,
2013-04-16 04:07:00,43.7,32.3,0.00,WNW,286,7.9,16.9,64,0.00,,,0.00,WUHU216CR1000,2013-04-16 11:07:00,
2013-04-16 04:17:00,43.5,32.5,0.00,WNW,283,9.2,18.6,65,0.00,,,0.00,WUHU216CR1000,2013-04-16 11:17:00,
2013-04-16 04:22:00,43.5,32.5,0.00,WNW,283,9.2,18.6,65,0.00,,,0.00,WUHU216CR1000,2013-04-16 11:22:00,
2013-04-16 04:32:00,43.5,32.4,0.00,WNW,283,8.7,17.3,64,0.00,,,0.00,WUHU216CR1000,2013-04-16 11:32:00,
2013-04-16 04:37:00,43.5,32.4,0.00,WNW,283,8.7,17.3,64,0.00,,,0.00,WUHU216CR1000,2013-04-16 11:37:00,
2013-04-16 04:47:00,43.4,32.3,0.00,WNW,284,9.1,20.6,65,0.00,,,0.00,WUHU216CR1000,2013-04-16 11:47:00,
2013-04-16 04:52:00,43.4,32.3,0.00,WNW,284,9.1,20.6,65,0.00,,,0.00,WUHU216CR1000,2013-04-16 11:52:00,
2013-04-16 05:02:00,43.4,32.2,0.00,WNW,288,8.4,17.6,64,0.00,,,0.00,WUHU216CR1000,2013-04-16 12:02:00,
2013-04-16 05:07:00,43.4,32.2,0.00,WNW,288,8.4,17.6,64,0.00,,,0.00,WUHU216CR1000,2013-04-16 12:07:00,
2013-04-16 05:17:00,43.2,32.1,0.00,WNW,292,7.5,17.8,65,0.00,,,0.00,WUHU216CR1000,2013-04-16 12:17:00,
2013-04-16 05:22:00,43.2,32.1,0.00,WNW,292,7.5,17.8,65,0.00,,,0.00,WUHU216CR1000,2013-04-16 12:22:00,
2013-04-16 05:32:00,42.9,32.0,0.00,WNW,294,5.7,14.7,65,0.00,,,0.00,WUHU216CR1000,2013-04-16 12:32:00,
2013-04-16 05:37:00,42.9,32.0,0.00,WNW,294,5.7,14.7,65,0.00,,,0.00,WUHU216CR1000,2013-04-16 12:37:00,
2013-04-16 05:47:00,42.8,32.0,0.00,WNW,294,6.5,13.6,66,0.00,,,0.00,WUHU216CR1000,2013-04-16 12:47:00,
2013-04-16 05:52:00,42.8,32.0,0.00,WNW,294,6.5,13.6,66,0.00,,,0.00,WUHU216CR1000,2013-04-16 12:52:00,
2013-04-16 06:02:00,42.8,32.0,0.00,WNW,296,7.0,15.6,65,0.00,,,0.00,WUHU216CR1000,2013-04-16 13:02:00,
2013-04-16 06:07:00,42.8,32.0,0.00,WNW,296,7.0,15.6,65,0.00,,,0.00,WUHU216CR1000,2013-04-16 13:07:00,
2013-04-16 06:17:00,42.6,31.9,0.00,WNW,303,6.1,14.5,66,0.00,,,0.00,WUHU216CR1000,2013-04-16 13:17:00,
2013-04-16 06:22:00,42.6,31.9,0.00,WNW,303,6.1,14.5,66,0.00,,,0.00,WUHU216CR1000,2013-04-16 13:22:00,
2013-04-16 06:32:00,42.0,31.4,0.00,NNW,338,3.2,9.0,66,0.00,,,0.00,WUHU216CR1000,2013-04-16 13:32:00,
2013-04-16 06:37:00,42.0,31.4,0.00,NNW,338,3.2,9.0,66,0.00,,,0.00,WUHU216CR1000,2013-04-16 13:37:00,
2013-04-16 06:47:00,41.8,31.6,0.00,NW,314,3.6,9.7,67,0.00,,,0.00,WUHU216CR1000,2013-04-16 13:47:00,
2013-04-16 06:52:00,41.8,31.6,0.00,NW,314,3.6,9.7,67,0.00,,,0.00,WUHU216CR1000,2013-04-16 13:52:00,
2013-04-16 07:02:00,41.8,31.4,0.00,NW,321,3.9,11.6,66,0.00,,,0.00,WUHU216CR1000,2013-04-16 14:02:00,
2013-04-16 07:07:00,41.8,31.4,0.00,NW,321,3.9,11.6,66,0.00,,,0.00,WUHU216CR1000,2013-04-16 14:07:00,
2013-04-16 07:17:00,42.3,31.6,0.00,NW,306,3.6,11.4,66,0.00,,,0.00,WUHU216CR1000,2013-04-16 14:17:00,
2013-04-16 07:22:00,42.3,31.6,0.00,NW,306,3.6,11.4,66,0.00,,,0.00,WUHU216CR1000,2013-04-16 14:22:00,
2013-04-16 07:32:00,43.0,31.6,0.00,NNE,26,2.1,9.2,64,0.00,,,0.00,WUHU216CR1000,2013-04-16 14:32:00,
2013-04-16 07:37:00,43.0,31.6,0.00,NNE,26,2.1,9.2,64,0.00,,,0.00,WUHU216CR1000,2013-04-16 14:37:00,
2013-04-16 07:47:00,44.6,31.8,0.00,NE,42,2.2,7.2,61,0.00,,,0.00,WUHU216CR1000,2013-04-16 14:47:00,
2013-04-16 07:52:00,44.6,31.8,0.00,NE,42,2.2,7.2,61,0.00,,,0.00,WUHU216CR1000,2013-04-16 14:52:00,
2013-04-16 08:02:00,45.5,32.1,0.00,NW,326,3.2,9.2,59,0.00,,,0.00,WUHU216CR1000,2013-04-16 15:02:00,
2013-04-16 08:07:00,45.5,32.1,0.00,NW,326,3.2,9.2,59,0.00,,,0.00,WUHU216CR1000,2013-04-16 15:07:00,
2013-04-16 08:17:00,46.3,32.2,0.00,NW,324,5.4,14.9,58,0.00,,,0.00,WUHU216CR1000,2013-04-16 15:17:00,
2013-04-16 08:22:00,46.3,32.2,0.00,NW,324,5.4,14.9,58,0.00,,,0.00,WUHU216CR1000,2013-04-16 15:22:00,
2013-04-16 08:32:00,47.3,32.2,0.00,NW,318,6.0,14.3,56,0.00,,,0.00,WUHU216CR1000,2013-04-16 15:32:00,
2013-04-16 08:37:00,47.3,32.2,0.00,NW,318,6.0,14.3,56,0.00,,,0.00,WUHU216CR1000,2013-04-16 15:37:00,
2013-04-16 08:47:00,48.4,32.3,0.00,NW,318,5.2,13.6,54,0.00,,,0.00,WUHU216CR1000,2013-04-16 15:47:00,
2013-04-16 08:52:00,48.4,32.3,0.00,NW,318,5.2,13.6,54,0.00,,,0.00,WUHU216CR1000,2013-04-16 15:52:00,
2013-04-16 09:02:00,49.5,32.3,0.00,NW,304,6.1,16.0,51,0.00,,,0.00,WUHU216CR1000,2013-04-16 16:02:00,
2013-04-16 09:07:00,49.5,32.3,0.00,NW,304,6.1,16.0,51,0.00,,,0.00,WUHU216CR1000,2013-04-16 16:07:00,
2013-04-16 09:17:00,50.8,32.4,0.00,NW,309,4.8,13.6,49,0.00,,,0.00,WUHU216CR1000,2013-04-16 16:17:00,
2013-04-16 09:22:00,50.8,32.4,0.00,NW,309,4.8,13.6,49,0.00,,,0.00,WUHU216CR1000,2013-04-16 16:22:00,
2013-04-16 09:32:00,51.7,31.9,0.00,NW,309,6.7,13.2,47,0.00,,,0.00,WUHU216CR1000,2013-04-16 16:32:00,
2013-04-16 09:37:00,51.7,31.9,0.00,NW,309,6.7,13.2,47,0.00,,,0.00,WUHU216CR1000,2013-04-16 16:37:00,
2013-04-16 09:47:00,52.8,31.9,0.00,WNW,301,6.6,16.2,45,0.00,,,0.00,WUHU216CR1000,2013-04-16 16:47:00,
2013-04-16 09:52:00,52.8,31.9,0.00,WNW,301,6.6,16.2,45,0.00,,,0.00,WUHU216CR1000,2013-04-16 16:52:00,
2013-04-16 10:02:00,53.8,31.3,0.00,NW,307,7.8,16.2,42,0.00,,,0.00,WUHU216CR1000,2013-04-16 17:02:00,
2013-04-16 10:07:00,53.8,31.3,0.00,NW,307,7.8,16.2,42,0.00,,,0.00,WUHU216CR1000,2013-04-16 17:07:00,
2013-04-16 10:17:00,54.9,31.7,0.00,WNW,301,6.9,14.5,41,0.00,,,0.00,WUHU216CR1000,2013-04-16 17:17:00,
2013-04-16 10:22:00,54.9,31.7,0.00,WNW,301,6.9,14.5,41,0.00,,,0.00,WUHU216CR1000,2013-04-16 17:22:00,
2013-04-16 10:32:00,56.0,31.8,0.00,WNW,301,6.9,14.9,40,0.00,,,0.00,WUHU216CR1000,2013-04-16 17:32:00,
2013-04-16 10:37:00,56.0,31.8,0.00,WNW,301,6.9,14.9,40,0.00,,,0.00,WUHU216CR1000,2013-04-16 17:37:00,
2013-04-16 10:47:00,56.9,30.9,0.00,WNW,303,7.1,16.7,37,0.00,,,0.00,WUHU216CR1000,2013-04-16 17:47:00,
2013-04-16 10:52:00,56.9,30.9,0.00,WNW,303,7.1,16.7,37,0.00,,,0.00,WUHU216CR1000,2013-04-16 17:52:00,
2013-04-16 11:02:00,57.7,30.2,0.00,NW,305,7.6,15.6,35,0.00,,,0.00,WUHU216CR1000,2013-04-16 18:02:00,
2013-04-16 11:07:00,57.7,30.2,0.00,NW,305,7.6,15.6,35,0.00,,,0.00,WUHU216CR1000,2013-04-16 18:07:00,
2013-04-16 11:17:00,58.8,29.8,0.00,WNW,303,7.5,15.6,33,0.00,,,0.00,WUHU216CR1000,2013-04-16 18:17:00,
2013-04-16 11:22:00,58.8,29.8,0.00,WNW,303,7.5,15.6,33,0.00,,,0.00,WUHU216CR1000,2013-04-16 18:22:00,
2013-04-16 11:32:00,59.9,29.4,0.00,WNW,303,7.2,15.1,31,0.00,,,0.00,WUHU216CR1000,2013-04-16 18:32:00,
2013-04-16 11:37:00,59.9,29.4,0.00,WNW,303,7.2,15.1,31,0.00,,,0.00,WUHU216CR1000,2013-04-16 18:37:00,
2013-04-16 11:47:00,60.7,29.6,0.00,WNW,290,6.8,14.5,31,0.00,,,0.00,WUHU216CR1000,2013-04-16 18:47:00,
2013-04-16 11:52:00,60.7,29.6,0.00,WNW,290,6.8,14.5,31,0.00,,,0.00,WUHU216CR1000,2013-04-16 18:52:00,
2013-04-16 12:02:00,62.0,29.6,0.00,West,276,6.4,12.1,29,0.00,,,0.00,WUHU216CR1000,2013-04-16 19:02:00,
2013-04-16 12:07:00,62.0,29.6,0.00,West,276,6.4,12.1,29,0.00,,,0.00,WUHU216CR1000,2013-04-16 19:07:00,
2013-04-16 12:17:00,63.0,29.3,0.00,WNW,296,6.1,12.7,28,0.00,,,0.00,WUHU216CR1000,2013-04-16 19:17:00,
2013-04-16 12:22:00,63.0,29.3,0.00,WNW,296,6.1,12.7,28,0.00,,,0.00,WUHU216CR1000,2013-04-16 19:22:00,
2013-04-16 12:32:00,63.5,27.8,0.00,West,272,5.6,14.5,26,0.00,,,0.00,WUHU216CR1000,2013-04-16 19:32:00,
2013-04-16 12:37:00,63.5,27.8,0.00,West,272,5.6,14.5,26,0.00,,,0.00,WUHU216CR1000,2013-04-16 19:37:00,
2013-04-16 12:47:00,64.2,28.4,0.00,WSW,257,5.3,11.6,26,0.00,,,0.00,WUHU216CR1000,2013-04-16 19:47:00,
2013-04-16 12:52:00,64.2,28.4,0.00,WSW,257,5.3,11.6,26,0.00,,,0.00,WUHU216CR1000,2013-04-16 19:52:00,
2013-04-16 13:02:00,64.3,28.2,0.00,WNW,288,6.4,15.8,26,0.00,,,0.00,WUHU216CR1000,2013-04-16 20:02:00,
2013-04-16 13:07:00,64.3,28.2,0.00,WNW,288,6.4,15.8,26,0.00,,,0.00,WUHU216CR1000,2013-04-16 20:07:00,
2013-04-16 13:17:00,64.9,27.1,0.00,WSW,251,6.9,16.5,24,0.00,,,0.00,WUHU216CR1000,2013-04-16 20:17:00,
2013-04-16 13:22:00,64.9,27.1,0.00,WSW,251,6.9,16.5,24,0.00,,,0.00,WUHU216CR1000,2013-04-16 20:22:00,
2013-04-16 13:32:00,65.1,27.3,0.00,West,280,6.3,12.7,24,0.00,,,0.00,WUHU216CR1000,2013-04-16 20:32:00,
2013-04-16 13:37:00,65.1,27.3,0.00,West,280,6.3,12.7,24,0.00,,,0.00,WUHU216CR1000,2013-04-16 20:37:00,
2013-04-16 13:47:00,65.8,27.0,0.00,West,280,6.0,13.2,23,0.00,,,0.00,WUHU216CR1000,2013-04-16 20:47:00,
2013-04-16 13:52:00,65.8,27.0,0.00,West,280,6.0,13.2,23,0.00,,,0.00,WUHU216CR1000,2013-04-16 20:52:00,
2013-04-16 14:02:00,66.1,27.4,0.00,West,279,6.5,14.7,23,0.00,,,0.00,WUHU216CR1000,2013-04-16 21:02:00,
2013-04-16 14:07:00,66.1,27.4,0.00,West,279,6.5,14.7,23,0.00,,,0.00,WUHU216CR1000,2013-04-16 21:07:00,
2013-04-16 14:17:00,66.0,27.1,0.00,WNW,287,7.5,15.4,23,0.00,,,0.00,WUHU216CR1000,2013-04-16 21:17:00,
2013-04-16 14:22:00,66.0,27.1,0.00,WNW,287,7.5,15.4,23,0.00,,,0.00,WUHU216CR1000,2013-04-16 21:22:00,
2013-04-16 14:32:00,67.1,27.3,0.00,West,269,6.2,12.7,22,0.00,,,0.00,WUHU216CR1000,2013-04-16 21:32:00,
2013-04-16 14:37:00,67.1,27.3,0.00,West,269,6.2,12.7,22,0.00,,,0.00,WUHU216CR1000,2013-04-16 21:37:00,
2013-04-16 14:47:00,67.0,28.4,0.00,WNW,287,7.1,19.5,23,0.00,,,0.00,WUHU216CR1000,2013-04-16 21:47:00,
2013-04-16 14:52:00,67.0,28.4,0.00,WNW,287,7.1,19.5,23,0.00,,,0.00,WUHU216CR1000,2013-04-16 21:52:00,
2013-04-16 15:02:00,67.3,29.1,0.00,West,270,7.3,17.3,24,0.00,,,0.00,WUHU216CR1000,2013-04-16 22:02:00,
2013-04-16 15:07:00,67.3,29.1,0.00,West,270,7.3,17.3,24,0.00,,,0.00,WUHU216CR1000,2013-04-16 22:07:00,
2013-04-16 15:17:00,67.7,29.7,0.00,WNW,292,7.1,16.0,24,0.00,,,0.00,WUHU216CR1000,2013-04-16 22:17:00,
2013-04-16 15:22:00,67.7,29.7,0.00,WNW,292,7.1,16.0,24,0.00,,,0.00,WUHU216CR1000,2013-04-16 22:22:00,
2013-04-16 15:32:00,68.1,29.7,0.00,WNW,284,6.7,17.1,24,0.00,,,0.00,WUHU216CR1000,2013-04-16 22:32:00,
2013-04-16 15:37:00,68.1,29.7,0.00,WNW,284,6.7,17.1,24,0.00,,,0.00,WUHU216CR1000,2013-04-16 22:37:00,
2013-04-16 15:47:00,68.3,30.7,0.00,WNW,288,8.8,20.2,25,0.00,,,0.00,WUHU216CR1000,2013-04-16 22:47:00,
2013-04-16 15:52:00,68.3,30.7,0.00,WNW,288,8.8,20.2,25,0.00,,,0.00,WUHU216CR1000,2013-04-16 22:52:00,
2013-04-16 16:02:00,67.6,30.4,0.00,WNW,299,7.7,17.6,25,0.00,,,0.00,WUHU216CR1000,2013-04-16 23:02:00,
2013-04-16 16:07:00,67.6,30.4,0.00,WNW,299,7.7,17.6,25,0.00,,,0.00,WUHU216CR1000,2013-04-16 23:07:00,
2013-04-16 16:17:00,66.8,31.0,0.00,WNW,301,10.0,21.9,26,0.00,,,0.00,WUHU216CR1000,2013-04-16 23:17:00,
2013-04-16 16:22:00,66.8,31.0,0.00,WNW,301,10.0,21.9,26,0.00,,,0.00,WUHU216CR1000,2013-04-16 23:22:00,
2013-04-16 16:32:00,66.7,30.2,0.00,NW,304,8.3,18.0,25,0.00,,,0.00,WUHU216CR1000,2013-04-16 23:32:00,
2013-04-16 16:37:00,66.7,30.2,0.00,NW,304,8.3,18.0,25,0.00,,,0.00,WUHU216CR1000,2013-04-16 23:37:00,
2013-04-16 16:47:00,66.3,28.9,0.00,WNW,297,8.2,16.7,25,0.00,,,0.00,WUHU216CR1000,2013-04-16 23:47:00,
2013-04-16 16:52:00,66.3,28.9,0.00,WNW,297,8.2,16.7,25,0.00,,,0.00,WUHU216CR1000,2013-04-16 23:52:00,
2013-04-16 17:02:00,66.7,29.6,0.00,NW,305,7.4,16.5,25,0.00,,,0.00,WUHU216CR1000,2013-04-17 00:02:00,
2013-04-16 17:07:00,66.7,29.6,0.00,NW,305,7.4,16.5,25,0.00,,,0.00,WUHU216CR1000,2013-04-17 00:07:00,
2013-04-16 17:17:00,66.2,31.1,0.00,WNW,291,7.8,15.8,27,0.00,,,0.00,WUHU216CR1000,2013-04-17 00:17:00,
2013-04-16 17:22:00,66.2,31.1,0.00,WNW,291,7.8,15.8,27,0.00,,,0.00,WUHU216CR1000,2013-04-17 00:22:00,
2013-04-16 17:32:00,66.1,31.9,0.00,WNW,296,8.2,18.6,28,0.00,,,0.00,WUHU216CR1000,2013-04-17 00:32:00,
2013-04-16 17:37:00,66.1,31.9,0.00,WNW,296,8.2,18.6,28,0.00,,,0.00,WUHU216CR1000,2013-04-17 00:37:00,
2013-04-16 17:47:00,65.7,32.7,0.00,WNW,285,8.3,16.9,29,0.00,,,0.00,WUHU216CR1000,2013-04-17 00:47:00,
2013-04-16 17:52:00,65.7,32.7,0.00,WNW,285,8.3,16.9,29,0.00,,,0.00,WUHU216CR1000,2013-04-17 00:52:00,
2013-04-16 18:02:00,65.8,33.5,0.00,WNW,291,6.8,18.4,30,0.00,,,0.00,WUHU216CR1000,2013-04-17 01:02:00,
2013-04-16 18:07:00,65.8,33.5,0.00,WNW,291,6.8,18.4,30,0.00,,,0.00,WUHU216CR1000,2013-04-17 01:07:00,
2013-04-16 18:17:00,65.4,33.8,0.00,WNW,301,7.5,16.7,31,0.00,,,0.00,WUHU216CR1000,2013-04-17 01:17:00,
2013-04-16 18:22:00,65.4,33.8,0.00,WNW,301,7.5,16.7,31,0.00,,,0.00,WUHU216CR1000,2013-04-17 01:22:00,
2013-04-16 18:32:00,63.6,33.5,0.00,WNW,300,8.6,20.0,32,0.00,,,0.00,WUHU216CR1000,2013-04-17 01:32:00,
2013-04-16 18:37:00,63.6,33.5,0.00,WNW,300,8.6,20.0,32,0.00,,,0.00,WUHU216CR1000,2013-04-17 01:37:00,
2013-04-16 18:47:00,62.9,32.5,0.00,NW,317,8.5,17.6,32,0.00,,,0.00,WUHU216CR1000,2013-04-17 01:47:00,
2013-04-16 18:52:00,62.9,32.5,0.00,NW,317,8.5,17.6,32,0.00,,,0.00,WUHU216CR1000,2013-04-17 01:52:00,
2013-04-16 19:02:00,62.2,32.5,0.00,NW,318,6.1,13.2,33,0.00,,,0.00,WUHU216CR1000,2013-04-17 02:02:00,
2013-04-16 19:07:00,62.2,32.5,0.00,NW,318,6.1,13.2,33,0.00,,,0.00,WUHU216CR1000,2013-04-17 02:07:00,
2013-04-16 19:17:00,61.8,32.9,0.00,NW,321,5.6,12.1,34,0.00,,,0.00,WUHU216CR1000,2013-04-17 02:17:00,
2013-04-16 19:22:00,61.8,32.9,0.00,NW,321,5.6,12.1,34,0.00,,,0.00,WUHU216CR1000,2013-04-17 02:22:00,
2013-04-16 19:32:00,61.3,34.1,0.00,NW,311,4.1,10.3,36,0.00,,,0.00,WUHU216CR1000,2013-04-17 02:32:00,
2013-04-16 19:37:00,61.3,34.1,0.00,NW,311,4.1,10.3,36,0.00,,,0.00,WUHU216CR1000,2013-04-17 02:37:00,
2013-04-16 19:47:00,60.4,35.1,0.00,WNW,302,5.4,10.5,39,0.00,,,0.00,WUHU216CR1000,2013-04-17 02:47:00,
2013-04-16 19:52:00,60.4,35.1,0.00,WNW,302,5.4,10.5,39,0.00,,,0.00,WUHU216CR1000,2013-04-17 02:52:00,
2013-04-16 20:02:00,59.4,36.0,0.00,WNW,297,2.9,8.1,42,0.00,,,0.00,WUHU216CR1000,2013-04-17 03:02:00,
2013-04-16 20:07:00,59.4,36.0,0.00,WNW,297,2.9,8.1,42,0.00,,,0.00,WUHU216CR1000,2013-04-17 03:07:00,
2013-04-16 20:17:00,58.1,36.9,0.00,West,261,2.6,7.0,45,0.00,,,0.00,WUHU216CR1000,2013-04-17 03:17:00,
2013-04-16 20:22:00,58.1,36.9,0.00,West,261,2.6,7.0,45,0.00,,,0.00,WUHU216CR1000,2013-04-17 03:22:00,
2013-04-16 20:32:00,57.0,37.3,0.00,West,278,3.4,9.2,48,0.00,,,0.00,WUHU216CR1000,2013-04-17 03:32:00,
2013-04-16 20:37:00,57.0,37.3,0.00,West,278,3.4,9.2,48,0.00,,,0.00,WUHU216CR1000,2013-04-17 03:37:00,
2013-04-16 20:47:00,56.5,37.0,0.00,WNW,286,1.9,7.5,48,0.00,,,0.00,WUHU216CR1000,2013-04-17 03:47:00,
2013-04-16 20:52:00,56.5,37.0,0.00,WNW,286,1.9,7.5,48,0.00,,,0.00,WUHU216CR1000,2013-04-17 03:52:00,
2013-04-16 21:02:00,55.8,37.8,0.00,WNW,284,4.1,8.8,51,0.00,,,0.00,WUHU216CR1000,2013-04-17 04:02:00,
2013-04-16 21:07:00,55.8,37.8,0.00,WNW,284,4.1,8.8,51,0.00,,,0.00,WUHU216CR1000,2013-04-17 04:07:00,
2013-04-16 21:17:00,54.9,37.8,0.00,WNW,302,3.4,7.0,53,0.00,,,0.00,WUHU216CR1000,2013-04-17 04:17:00,
2013-04-16 21:22:00,54.9,37.8,0.00,WNW,302,3.4,7.0,53,0.00,,,0.00,WUHU216CR1000,2013-04-17 04:22:00,
2013-04-16 21:32:00,54.3,38.0,0.00,WNW,296,3.6,8.3,54,0.00,,,0.00,WUHU216CR1000,2013-04-17 04:32:00,
2013-04-16 21:37:00,54.3,38.0,0.00,WNW,296,3.6,8.3,54,0.00,,,0.00,WUHU216CR1000,2013-04-17 04:37:00,
2013-04-16 21:47:00,53.8,37.9,0.00,NW,304,3.4,7.0,55,0.00,,,0.00,WUHU216CR1000,2013-04-17 04:47:00,
2013-04-16 21:52:00,53.8,37.9,0.00,NW,304,3.4,7.0,55,0.00,,,0.00,WUHU216CR1000,2013-04-17 04:52:00,
2013-04-16 22:02:00,52.9,37.7,0.00,NW,322,2.9,6.6,56,0.00,,,0.00,WUHU216CR1000,2013-04-17 05:02:00,
2013-04-16 22:07:00,52.9,37.7,0.00,NW,322,2.9,6.6,56,0.00,,,0.00,WUHU216CR1000,2013-04-17 05:07:00,
2013-04-16 22:17:00,51.9,37.6,0.00,North,360,1.4,3.5,58,0.00,,,0.00,WUHU216CR1000,2013-04-17 05:17:00,
2013-04-16 22:22:00,51.9,37.6,0.00,North,360,1.4,3.5,58,0.00,,,0.00,WUHU216CR1000,2013-04-17 05:22:00,
2013-04-16 22:32:00,50.4,37.4,0.00,SW,231,1.1,5.5,61,0.00,,,0.00,WUHU216CR1000,2013-04-17 05:32:00,
2013-04-16 22:37:00,50.4,37.4,0.00,SW,231,1.1,5.5,61,0.00,,,0.00,WUHU216CR1000,2013-04-17 05:37:00,
2013-04-16 22:46:00,51.2,38.3,0.00,WNW,289,2.1,6.6,61,0.00,,,0.00,WUHU216CR1000,2013-04-17 05:46:00,
2013-04-16 22:47:00,51.2,38.3,0.00,WNW,289,2.1,6.6,61,0.00,,,0.00,WUHU216CR1000,2013-04-17 05:47:00,
2013-04-16 22:52:00,51.2,38.3,0.00,WNW,289,2.1,6.6,61,0.00,,,0.00,WUHU216CR1000,2013-04-17 05:52:00,
2013-04-16 23:01:00,51.3,38.0,0.00,NW,312,2.1,6.6,60,0.00,,,0.00,WUHU216CR1000,2013-04-17 06:01:00,
2013-04-16 23:06:00,51.3,38.0,0.00,NW,312,2.1,6.6,60,0.00,,,0.00,WUHU216CR1000,2013-04-17 06:06:00,
2013-04-16 23:17:00,50.5,37.7,0.00,NNW,347,1.8,4.6,61,0.00,,,0.00,WUHU216CR1000,2013-04-17 06:17:00,
2013-04-16 23:22:00,50.5,37.7,0.00,NNW,347,1.8,4.6,61,0.00,,,0.00,WUHU216CR1000,2013-04-17 06:22:00,
2013-04-16 23:32:00,49.9,37.9,0.00,NW,322,2.0,4.6,63,0.00,,,0.00,WUHU216CR1000,2013-04-17 06:32:00,
2013-04-16 23:37:00,49.9,37.9,0.00,NW,322,2.0,4.6,63,0.00,,,0.00,WUHU216CR1000,2013-04-17 06:37:00,
2013-04-16 23:47:00,49.9,38.3,0.00,WNW,298,2.9,6.1,64,0.00,,,0.00,WUHU216CR1000,2013-04-17 06:47:00,
2013-04-16 23:52:00,49.9,38.3,0.00,WNW,298,2.9,6.1,64,0.00,,,0.00,WUHU216CR1000,2013-04-17 06:52:00,